Location: Unnamed
(47.6264°N, 122.3366°W)
Time: 13:23:36
(UTC-07:00)

UPPER FREE FLYER - Pass Details

Date: 13 August 2020
Orbit: 571 x 589 km, 97.7° (Epoch: 01 October)

Event Time Altitude Azimuth Distance (km) Brightness Sun altitude
Exits shadow 00:06:56 16° 263° (W) 1,515 ? -26.1°
Maximum altitude 00:07:18 17° 269° (W) 1,508 ? -26.1°
Drops below altitude 10° 00:09:57 10° 310° (NW) 1,896 ? -26.2°
Sets 00:12:49 0° 331° (NNW) 2,805 ? -26.4°
